N7MLR Weather Reports


time (UTC)temp
F
wind
direction
speed
knots
gust
knots
rain 1hr
in
rain 24hr
in
rain mn
in
humidity
%
barometer
mb
20260508235746 75 240 0.9 0.9 0.00 0.01 0.01 83 1008.9
20260508235242 75 233 0.0 0.9 0.00 0.01 0.01 83 1009.0
20260508234740 76 233 0.0 0.0 0.00 0.01 0.01 83 1009.0
20260508234235 76 221 0.9 0.9 0.00 0.01 0.01 83 1009.0
20260508233730 76 220 0.0 0.0 0.00 0.01 0.01 83 1009.0
20260508233227 76 222 0.9 0.9 0.00 0.01 0.01 82 1008.9
20260508232724 76 228 0.9 0.9 0.00 0.01 0.01 82 1008.8
20260508232221 77 227 0.9 0.9 0.00 0.01 0.01 82 1008.8
20260508231719 77 220 0.0 0.0 0.00 0.01 0.01 81 1008.7
20260508231215 78 223 0.9 0.9 0.00 0.01 0.01 80 1008.7
20260508230712 78 208 0.9 0.9 0.00 0.01 0.01 80 1008.9
20260508230208 78 212 0.9 0.9 0.00 0.01 0.01 80 1009.1
20260508225706 78 205 0.9 0.9 0.00 0.01 0.01 79 1008.9
20260508225202 78 218 0.9 1.7 0.00 0.01 0.01 80 1008.9
20260508224700 77 176 1.7 1.7 0.00 0.01 0.01 81 1008.9
20260508224157 76 178 1.7 1.7 0.00 0.01 0.01 82 1009.0
20260508223655 76 230 0.9 1.7 0.00 0.01 0.01 82 1008.8
20260508223152 76 243 1.7 2.6 0.00 0.01 0.01 83 1009.1
20260508222650 76 270 2.6 2.6 0.00 0.01 0.01 82 1009.1
20260508222147 76 214 0.9 0.9 0.00 0.01 0.01 82 1009.0
20260508221643 76 226 0.9 0.9 0.00 0.01 0.01 82 1009.0
20260508221139 76 238 0.0 0.0 0.00 0.01 0.01 82 1009.0
20260508220636 76 224 0.9 0.9 0.00 0.01 0.01 82 1009.1
20260508220132 76 218 0.0 0.0 0.00 0.01 0.01 83 1009.0
20260508215629 76 229 0.9 0.9 0.00 0.01 0.01 83 1009.1
20260508215125 76 235 0.9 1.7 0.00 0.01 0.01 83 1009.1
20260508214622 75 231 0.0 0.9 0.00 0.01 0.01 83 1009.2
20260508214119 76 231 0.9 0.9 0.00 0.01 0.01 82 1009.2
20260508213616 76 253 0.9 1.7 0.00 0.01 0.01 82 1009.0
20260508213112 77 234 0.9 0.9 0.00 0.01 0.01 80 1009.3
20260508212609 77 224 0.9 1.7 0.00 0.01 0.01 79 1009.2
20260508212106 77 223 0.9 0.9 0.00 0.01 0.01 81 1009.4
20260508211601 77 208 0.9 0.9 0.00 0.01 0.01 79 1009.5
20260508211057 78 200 0.9 0.9 0.00 0.01 0.01 79 1009.6
20260508210554 78 195 0.9 0.9 0.00 0.01 0.01 78 1009.5
20260508210051 78 216 0.9 0.9 0.00 0.01 0.01 78 1009.4
20260508205549 79 216 0.0 0.9 0.00 0.01 0.01 77 1009.7
20260508205045 78 210 1.7 2.6 0.00 0.01 0.01 77 1009.6
20260508204541 78 235 0.0 0.9 0.00 0.01 0.01 78 1009.9
20260508204037 78 223 0.9 0.9 0.00 0.01 0.01 79 1009.7
20260508203534 78 227 0.9 0.9 0.00 0.01 0.01 79 1010.0
20260508203030 77 218 0.0 0.9 0.00 0.01 0.01 79 1010.0
20260508202527 78 252 1.7 2.6 0.00 0.01 0.01 79 1010.1
20260508202024 78 217 0.9 1.7 0.00 0.01 0.01 78 1009.9
20260508201520 78 208 0.9 0.9 0.00 0.01 0.01 79 1010.0
20260508201017 78 223 0.9 0.9 0.00 0.01 0.01 78 1010.0
20260508200514 77 224 0.9 0.9 0.00 0.01 0.01 79 1010.3
20260508200010 77 212 0.9 0.9 0.00 0.01 0.01 79 1010.2
20260508195507 77 272 1.7 2.6 0.00 0.01 0.01 80 1010.2
20260508195003 76 302 1.7 2.6 0.00 0.01 0.01 80 1010.1
20260508194500 76 23 2.6 4.3 0.00 0.01 0.01 81 1010.3
20260508193957 76 202 0.9 0.9 0.00 0.01 0.01 80 1010.5
20260508193453 76 230 0.9 1.7 0.00 0.01 0.01 80 1010.5
20260508192950 76 209 0.9 0.9 0.00 0.01 0.01 80 1010.4
20260508192447 76 244 0.9 1.7 0.00 0.01 0.01 80 1010.5
20260508191944 76 216 0.9 1.7 0.00 0.01 0.01 79 1010.4
20260508191441 76 197 0.9 1.7 0.00 0.01 0.01 80 1010.6
20260508190937 75 219 1.7 1.7 0.00 0.01 0.01 82 1010.7
20260508190435 74 269 1.7 1.7 0.00 0.01 0.01 81 1010.8
20260508185931 74 238 0.0 0.9 0.00 0.01 0.01 81 1010.6
20260508185428 74 239 0.9 0.9 0.00 0.01 0.01 82 1010.9
20260508184925 73 231 0.0 0.0 0.00 0.01 0.01 82 1010.9
20260508184423 73 234 0.0 0.9 0.00 0.01 0.01 82 1011.2
20260508183919 72 222 0.9 0.9 0.00 0.01 0.01 84 1010.9
20260508183416 72 250 1.7 1.7 0.00 0.01 0.01 83 1011.2
20260508182911 73 245 0.9 1.7 0.00 0.01 0.01 83 1010.9
20260508182409 73 231 1.7 1.7 0.00 0.01 0.01 82 1011.3
20260508181904 73 238 0.9 0.9 0.00 0.01 0.01 83 1011.4
20260508181401 73 234 0.0 0.9 0.00 0.01 0.01 84 1011.7
20260508180858 73 230 0.9 0.9 0.00 0.01 0.01 82 1011.6
20260508180355 74 224 1.7 1.7 0.00 0.01 0.01 82 1011.6
20260508175851 74 231 0.9 0.9 0.00 0.01 0.01 81 1011.6
20260508175348 74 217 0.9 0.9 0.00 0.01 0.01 81 1011.7
20260508174846 73 226 0.9 0.9 0.00 0.01 0.01 82 1011.8
20260508174343 73 225 0.9 0.9 0.00 0.01 0.01 84 1012.0
20260508173839 73 234 0.9 0.9 0.00 0.01 0.01 83 1011.9
20260508173337 72 219 0.9 0.9 0.00 0.01 0.01 83 1011.7
20260508172832 73 237 0.9 0.9 0.00 0.01 0.01 82 1011.9
20260508172330 74 232 0.9 0.9 0.00 0.01 0.01 80 1011.8
20260508171826 74 232 0.9 0.9 0.00 0.01 0.01 80 1011.7
20260508171322 74 222 0.9 0.9 0.00 0.01 0.01 79 1011.7
20260508170819 74 213 0.9 0.9 0.00 0.01 0.01 80 1011.9
20260508170318 73 178 0.0 0.0 0.00 0.01 0.01 80 1011.8
20260508165814 73 229 0.0 0.9 0.00 0.01 0.01 79 1011.9
20260508165311 73 228 0.0 0.0 0.00 0.01 0.01 79 1012.1
20260508164807 73 227 0.9 0.9 0.00 0.01 0.01 78 1011.8
20260508164304 71 192 0.0 0.9 0.00 0.01 0.01 80 1011.9
20260508163802 70 193 0.0 0.0 0.00 0.01 0.01 82 1012.1
20260508163259 69 192 0.0 0.0 0.00 0.01 0.01 83 1012.1
20260508162755 70 192 0.0 0.0 0.00 0.01 0.01 83 1012.3
20260508162252 70 192 0.0 0.9 0.00 0.01 0.01 82 1012.5
20260508161749 69 192 0.0 0.0 0.00 0.01 0.01 82 1012.2
20260508161246 70 192 0.0 0.9 0.00 0.01 0.01 81 1012.5
20260508160744 69 194 0.0 0.0 0.00 0.01 0.01 82 1012.6
20260508160242 69 209 0.0 0.9 0.00 0.01 0.01 82 1012.8
20260508155738 68 200 0.0 0.9 0.00 0.01 0.01 83 1012.9
20260508155235 67 197 0.9 0.9 0.00 0.01 0.01 84 1012.9
20260508154732 66 201 0.0 0.0 0.00 0.01 0.01 85 1013.0
20260508154230 66 208 0.0 0.9 0.00 0.01 0.01 85 1013.1
20260508153726 66 178 1.7 1.7 0.00 0.01 0.01 85 1013.2
20260508153223 66 177 0.0 0.0 0.00 0.01 0.01 85 1013.3
20260508152720 66 177 0.0 0.0 0.00 0.01 0.01 86 1013.6
20260508152215 65 177 0.0 0.0 0.00 0.01 0.01 86 1013.5
20260508151712 65 174 0.9 1.7 0.00 0.01 0.01 87 1013.1
20260508151209 64 193 0.9 0.9 0.00 0.01 0.01 87 1013.4
20260508150706 64 190 2.6 2.6 0.00 0.01 0.01 87 1013.4
20260508150203 64 198 0.0 0.0 0.00 0.01 0.01 88 1013.6
20260508145658 64 202 1.7 1.7 0.00 0.01 0.01 88 1013.4
20260508145154 64 194 2.6 2.6 0.00 0.01 0.01 87 1013.5
20260508144652 64 179 0.0 0.9 0.00 0.01 0.01 88 1013.4
20260508144150 63 192 0.0 0.0 0.00 0.01 0.01 88 1013.5
20260508143647 63 192 0.9 0.9 0.00 0.01 0.01 88 1013.6
20260508143144 63 192 0.9 0.9 0.00 0.01 0.01 88 1013.8
20260508142640 62 192 0.0 0.0 0.00 0.01 0.01 88 1013.8
20260508142137 62 192 0.0 0.0 0.00 0.01 0.01 89 1013.7
20260508141633 62 192 0.0 0.9 0.00 0.01 0.01 89 1013.5
20260508141131 62 194 0.9 1.7 0.00 0.01 0.01 89 1013.2
20260508140629 62 198 1.7 1.7 0.00 0.01 0.01 89 1013.3
20260508140125 61 198 0.9 0.9 0.00 0.01 0.01 89 1013.5
20260508135621 61 197 0.0 0.9 0.00 0.01 0.01 89 1013.5
20260508135117 61 197 1.7 1.7 0.00 0.01 0.01 89 1013.5
20260508134614 61 189 0.0 0.9 0.00 0.01 0.01 89 1013.4
20260508134111 61 190 0.9 1.7 0.00 0.01 0.01 89 1013.2
20260508133608 61 198 1.7 1.7 0.00 0.01 0.01 89 1013.1
20260508133105 60 206 1.7 1.7 0.00 0.01 0.01 90 1013.3
20260508132603 60 207 0.0 0.9 0.00 0.01 0.01 90 1013.5
20260508132059 60 206 0.9 1.7 0.00 0.01 0.01 90 1013.7
20260508131555 60 207 0.0 0.9 0.00 0.01 0.01 90 1013.5
20260508131052 60 208 0.9 0.9 0.00 0.01 0.01 90 1013.1
20260508130548 60 210 2.6 2.6 0.00 0.01 0.01 90 1013.3
20260508130045 60 210 0.9 1.7 0.00 0.01 0.01 90 1013.2
20260508125540 60 210 0.0 0.9 0.00 0.01 0.01 90 1013.3
20260508125039 60 210 0.0 0.9 0.00 0.01 0.01 90 1013.3
20260508124536 60 212 2.6 2.6 0.00 0.01 0.01 91 1013.5
20260508124033 60 213 0.9 0.9 0.00 0.01 0.01 91 1013.4
20260508123532 59 212 0.0 0.0 0.00 0.01 0.01 91 1013.8
20260508123028 59 212 0.0 0.0 0.00 0.01 0.01 91 1013.8
20260508122525 59 212 0.9 0.9 0.00 0.01 0.01 91 1013.7
20260508122022 59 213 0.0 0.9 0.00 0.01 0.01 92 1013.6
20260508121520 59 215 0.9 0.9 0.00 0.01 0.01 92 1013.5
20260508121018 59 215 0.0 0.0 0.00 0.01 0.01 92 1013.5
20260508120515 59 215 1.7 1.7 0.00 0.01 0.01 93 1012.9
20260508120013 59 182 1.7 1.7 0.00 0.01 0.01 93 1013.1
20260508115510 59 203 1.7 1.7 0.00 0.01 0.01 93 1013.3
20260508115007 59 205 0.0 0.9 0.00 0.01 0.01 93 1013.5
20260508114504 59 205 0.0 0.0 0.00 0.01 0.01 93 1013.6
20260508114000 59 201 0.0 0.9 0.00 0.01 0.01 93 1013.4
20260508113458 59 198 0.0 0.9 0.00 0.01 0.01 93 1013.7
20260508112955 59 201 0.0 0.0 0.00 0.01 0.01 92 1013.5
20260508112451 60 200 0.0 0.0 0.00 0.01 0.01 91 1013.5
20260508111948 60 200 0.0 0.0 0.00 0.01 0.01 91 1014.1
20260508111445 60 200 1.7 1.7 0.07 0.01 0.01 90 1014.0
20260508110942 60 200 0.0 0.0 0.07 0.01 0.01 90 1014.0
20260508110440 60 206 0.0 0.9 0.00 0.00 0.00 88 1013.7
20260508105939 61 209 0.9 1.7 0.00 0.00 0.00 86 1014.1
20260508105436 61 220 1.7 1.7 0.00 0.00 0.00 84 1014.0
20260508104934 61 194 1.7 1.7 0.00 0.00 0.00 83 1014.2
20260508104431 61 209 0.0 0.0 0.00 0.00 0.00 83 1014.0
20260508103927 61 200 0.9 1.7 0.00 0.00 0.00 82 1014.0
20260508103425 61 184 1.7 2.6 0.00 0.00 0.00 82 1013.8
20260508102921 61 198 0.0 0.9 0.00 0.00 0.00 82 1013.5
20260508102420 61 204 0.9 0.9 0.00 0.00 0.00 82 1013.6
20260508101917 61 194 1.7 1.7 0.00 0.00 0.00 82 1013.7
20260508101414 61 206 1.7 1.7 0.00 0.00 0.00 82 1014.0
20260508100911 61 196 1.7 2.6 0.00 0.00 0.00 82 1013.6
20260508100410 61 207 1.7 1.7 0.00 0.00 0.00 82 1013.5
20260508095905 61 204 0.9 0.9 0.00 0.00 0.00 82 1013.4
20260508095404 61 189 0.9 1.7 0.00 0.00 0.00 82 1013.4
20260508094900 61 209 2.6 2.6 0.00 0.00 0.00 82 1013.2
20260508094357 61 212 0.9 0.9 0.00 0.00 0.00 81 1013.1
20260508093854 61 213 0.9 0.9 0.00 0.00 0.00 81 1013.1
20260508093351 61 188 1.7 1.7 0.00 0.00 0.00 81 1013.4
20260508092849 61 205 0.9 0.9 0.00 0.00 0.00 82 1013.5
20260508092346 61 194 0.9 0.9 0.00 0.00 0.00 82 1013.4
20260508091845 61 193 0.0 0.0 0.00 0.00 0.00 82 1013.3
20260508091340 61 194 0.0 0.9 0.00 0.00 0.00 82 1013.5
20260508090839 61 193 0.9 0.9 0.00 0.00 0.00 81 1013.7
20260508090337 61 193 0.0 0.0 0.00 0.00 0.00 82 1013.7
20260508085832 61 194 0.9 0.9 0.00 0.00 0.00 82 1013.5
20260508085329 61 194 0.0 0.9 0.00 0.00 0.00 82 1013.8
20260508084825 61 196 0.0 0.0 0.00 0.00 0.00 82 1013.8
20260508084322 61 196 0.9 0.9 0.00 0.00 0.00 81 1013.6
20260508083820 61 196 0.0 0.9 0.00 0.00 0.00 81 1013.8
20260508083317 61 196 0.9 0.9 0.00 0.00 0.00 81 1014.1
20260508082817 61 196 0.9 0.9 0.00 0.00 0.00 81 1013.7
20260508082315 61 196 0.0 0.0 0.00 0.00 0.00 81 1013.7
20260508081812 61 196 0.9 0.9 0.00 0.00 0.00 80 1013.8
20260508081309 61 196 0.0 0.0 0.00 0.00 0.00 80 1014.1
20260508080806 61 196 0.0 0.0 0.00 0.00 0.00 80 1014.1
20260508080304 61 196 0.0 0.9 0.00 0.00 0.00 80 1014.0
20260508075800 62 196 0.0 0.0 0.00 0.00 0.00 80 1014.1
20260508075257 62 196 0.0 0.0 0.00 0.00 0.00 80 1014.2
20260508074755 62 196 0.0 0.0 0.00 0.00 0.00 79 1014.4
20260508074252 62 196 0.0 0.0 0.00 0.00 0.00 80 1014.4
20260508073749 62 196 0.9 0.9 0.00 0.00 0.00 79 1014.1
20260508073247 62 196 0.0 0.0 0.00 0.00 0.00 79 1014.5
20260508072742 62 196 0.0 0.0 0.00 0.00 0.00 79 1014.3
20260508072239 62 196 0.0 0.0 0.00 0.00 0.00 79 1014.3
20260508071737 62 196 0.0 0.0 0.00 0.00 0.00 79 1014.3
20260508071235 62 196 0.0 0.0 0.00 0.00 0.00 78 1014.2
20260508070732 62 196 0.0 0.9 0.00 0.00 0.00 78 1014.4
20260508070231 62 196 0.0 0.0 0.00 0.00 0.00 79 1014.1
20260508065727 62 196 0.9 0.9 0.00 0.00 0.00 79 1014.5
20260508065226 62 196 0.0 0.9 0.00 0.00 0.00 79 1014.1
20260508064723 62 196 0.9 0.9 0.00 0.00 0.00 79 1014.2
20260508064221 62 195 0.9 1.7 0.00 0.00 0.00 78 1014.2
20260508063718 62 195 0.0 0.0 0.00 0.00 0.00 78 1014.5
20260508063216 62 199 0.0 0.9 0.00 0.00 0.00 79 1014.0
20260508062713 62 204 2.6 4.3 0.00 0.00 0.00 79 1014.0
20260508062210 62 202 0.9 1.7 0.00 0.00 0.00 79 1013.8
20260508061707 62 204 0.9 1.7 0.00 0.00 0.00 79 1014.1
20260508061205 62 203 0.0 0.0 0.00 0.00 0.00 79 1014.4
20260508060702 62 203 0.9 0.9 0.00 0.00 0.00 78 1014.3
20260508060158 62 202 0.9 0.9 0.00 0.00 0.00 78 1014.7
20260508055654 61 202 0.0 0.0 0.00 0.00 0.00 78 1014.8
20260508055151 61 202 0.0 0.0 0.00 0.00 0.00 79 1015.2
20260508054647 61 202 0.0 0.0 0.00 0.00 0.00 78 1014.6
20260508054145 61 202 0.0 0.0 0.00 0.00 0.00 78 1015.0
20260508053642 62 202 0.0 0.0 0.00 0.00 0.00 78 1014.7
20260508053139 62 207 1.7 2.6 0.00 0.00 0.00 77 1014.5
20260508052637 62 213 0.0 0.0 0.00 0.00 0.00 76 1014.4
20260508052134 62 210 1.7 2.6 0.00 0.00 0.00 76 1014.7
20260508051630 62 194 0.9 1.7 0.00 0.00 0.00 75 1014.9
20260508051125 62 188 1.7 1.7 0.00 0.00 0.00 75 1014.9
20260508050621 62 192 0.0 0.9 0.00 0.00 0.00 75 1015.0
20260508050119 62 206 0.0 0.0 0.00 0.00 0.00 75 1015.2
20260508045615 62 190 0.9 0.9 0.00 0.00 0.00 74 1015.3
20260508045113 62 189 1.7 1.7 0.00 0.00 0.00 75 1015.4
20260508044610 62 178 1.7 1.7 0.00 0.00 0.00 76 1015.3
20260508044106 62 191 0.9 0.9 0.00 0.00 0.00 77 1014.8
20260508043603 62 186 2.6 4.3 0.00 0.00 0.00 77 1014.8
20260508043101 62 196 0.9 0.9 0.00 0.00 0.00 78 1015.0
20260508042557 62 187 0.0 0.0 0.00 0.00 0.00 78 1014.7
20260508042054 62 192 1.7 1.7 0.00 0.00 0.00 78 1013.7
20260508041550 62 215 1.7 4.3 0.00 0.00 0.00 79 1013.5
20260508041047 62 215 0.9 1.7 0.00 0.00 0.00 79 1013.8
20260508040544 62 216 0.0 0.9 0.00 0.00 0.00 79 1013.7
20260508040042 62 216 0.9 0.9 0.00 0.00 0.00 78 1013.7
20260508035538 63 215 0.9 0.9 0.00 0.00 0.00 78 1014.0
20260508035036 63 211 1.7 1.7 0.00 0.00 0.00 78 1014.0
20260508034532 63 216 0.0 0.0 0.00 0.00 0.00 77 1014.1
20260508034029 63 209 1.7 1.7 0.00 0.00 0.00 77 1014.5
20260508033527 63 197 0.0 0.0 0.00 0.00 0.00 78 1014.8
20260508033025 63 195 0.0 0.9 0.00 0.00 0.00 77 1015.1
20260508032521 63 194 0.9 0.9 0.00 0.00 0.00 77 1015.0
20260508032019 63 197 0.9 0.9 0.00 0.00 0.00 76 1015.0
20260508031516 63 197 0.9 0.9 0.00 0.00 0.00 76 1015.0
20260508031011 64 196 0.0 0.0 0.00 0.00 0.00 76 1015.1
20260508030509 64 197 0.9 0.9 0.00 0.00 0.00 75 1015.3
20260508030007 64 196 0.0 0.0 0.00 0.00 0.00 75 1015.6
20260508025502 64 197 0.0 0.0 0.00 0.00 0.00 75 1015.5
20260508025000 64 196 0.0 0.9 0.00 0.00 0.00 74 1015.4
20260508024455 64 211 0.0 0.0 0.00 0.00 0.00 74 1015.7
20260508023952 64 211 0.0 0.0 0.00 0.00 0.00 74 1015.6
20260508023449 64 211 0.0 0.0 0.00 0.00 0.00 74 1015.7
20260508022947 63 211 0.0 0.0 0.00 0.00 0.00 74 1015.6
20260508022442 63 211 0.0 0.9 0.00 0.00 0.00 73 1015.6
20260508021939 63 211 0.9 0.9 0.00 0.00 0.00 73 1015.5
20260508021435 63 212 0.9 0.9 0.00 0.00 0.00 73 1014.8
20260508020931 63 216 0.0 0.0 0.00 0.00 0.00 72 1013.7
20260508020429 63 224 0.9 1.7 0.00 0.00 0.00 72 1013.2
20260508015926 63 229 0.9 0.9 0.00 0.00 0.00 72 1013.2
20260508015424 64 225 0.9 1.7 0.00 0.00 0.00 72 1013.2
20260508014920 64 204 0.9 0.9 0.00 0.00 0.00 70 1013.8
20260508014417 64 196 2.6 4.3 0.00 0.00 0.00 70 1013.8
20260508013912 64 206 0.0 0.0 0.00 0.00 0.00 70 1013.1
20260508013409 64 204 0.9 1.7 0.00 0.00 0.00 70 1013.2
20260508012906 64 211 0.9 0.9 0.00 0.00 0.00 69 1012.8
20260508012403 64 219 0.9 1.7 0.00 0.00 0.00 69 1012.6
20260508011901 65 265 1.7 2.6 0.00 0.00 0.00 69 1012.8
20260508011359 65 235 4.3 5.2 0.00 0.00 0.00 68 1013.6
20260508010855 65 187 6.1 7.8 0.00 0.00 0.00 68 1013.3
20260508010353 65 225 3.5 4.3 0.00 0.00 0.00 67 1013.3
20260508005850 65 228 2.6 2.6 0.00 0.00 0.00 67 1013.6
20260508005346 65 237 4.3 6.1 0.00 0.00 0.00 67 1013.3
20260508004843 65 185 4.3 6.1 0.00 0.00 0.00 67 1013.2
20260508004339 66 144 2.6 5.2 0.00 0.00 0.00 67 1013.7
20260508003836 66 160 2.6 4.3 0.00 0.00 0.00 68 1013.4
20260508003333 65 205 1.7 2.6 0.00 0.00 0.00 67 1011.9
20260508002830 66 207 2.6 4.3 0.00 0.00 0.00 68 1010.7
20260508002326 66 236 2.6 4.3 0.00 0.00 0.00 67 1011.8
20260508001822 66 252 2.6 2.6 0.00 0.00 0.00 66 1012.6
20260508001319 66 201 3.5 4.3 0.00 0.00 0.00 66 1013.1
20260508000815 66 216 0.9 1.7 0.00 0.00 0.00 65 1013.5
20260508000312 66 228 0.9 0.9 0.00 0.00 0.00 65 1013.7